COSMOS 252 DEB *, 3690

Orbit data source: Space-Track

COSMOS 252 DEB *, 3690 is space debris in LEO originally from a launch on Fri, 01 Nov 1968 UTC launched from the Tyuratam Missile And Space Complex (TTMTR). Debris objects in space refer to the collection of defunct objects orbiting the Earth. Examples of debris include non-operational satellites, rocket bodies, and fragments generated from explosions, collisions, or faulty payload assembly.

Loading next visibility...
Identifier
3690, 1968-097AH
Orbit
LEO
Country
Flag of CISCIS
Related business
Manufacturer
Unknown
Mission
Spacecraft
Bus & Motor
Unknown
Mass
Unknown
Launch date (UTC)
1968-11-01 (57 years ago)
Launch vehicle
Unknown
Launch site
Tyuratam Missile And Space Complex (TTMTR)
Object type
Payload
Rocket body
Debris
Shape & HBR
Unknown
Radar Cross Section
Small (<0.1 m²)

Expand to show TLE details & history
Last TLE update: 1 day ago

TLE from 1 day ago
0 COSMOS 252 DEB *
1 03690U 68097AH  25241.70789523  .00001313  00000-0  13454-2 0  9990
2 03690  62.3475  19.6949 0778520 197.2430 160.0696 12.90295614634550
Epoch: 2025-08-29T16:59Z
TLE epoch observation values (Epoch: 2025-08-29T16:59:22.147Z)
Latitude
0.00003°
Longitude
146.69996°
Altitude
1,868.863 km
Speed
6.692 km/s
True Right ascension
01h 18m 46s
True Declination
0° 00' 00"
Sunlit
Object was in full shadow at epoch
Visualization orbit readout
Latitude
Unknown
Longitude
Unknown
Altitude
Unknown
Speed
Unknown
Apparent Right ascension
Unknown
Apparent Declination
Unknown
Sunlit
N/A
Visualization observer readout
Local Sidereal Time
16:22:40
Azimuth
Unknown
Elevation
Unknown
Doppler factor
Unknown
Orbital elements
Apogee altitude
1,897.038 km
Perigee altitude
701.625 km
Semi-major axis
7,677.469 km
Eccentricity
0.07785
Inclination
62.3475°
RAAN
19.6949°
Arg. of periapsis
197.243°
True anomaly
162.85392°
Mean anomaly
160.0696°
Eccentric anomaly
161.486°
Mean motion
3.22638 °/min
Orbital period
111.58 mins
BSTAR
0.0013454
Loading maneuver chart data...
Computing Atmospheric mass density...

Documentation

Showing up to 5 results
|